Vorticity
13 17 20 23 21 19 18 19 21 19 13 1 -2 5 8 -4 6 10 13 14 16 15 13 9 6 3 1 0 2 4 5 6 6 6 6 6 6 5 6 6 6 6 6 6 6 6 7 7 7 8 8 8 8 8 8 8 8 8 9 9 10 10 10 10 10 10 10 10 10
16 20 23 24 21 20 20 22 21 13 4 -2 1 2 2 0 0 2 6 11 13 13 12 8 5 3 2 2 3 4 5 6 6 5 5 5 5 5 5 6 6 6 6 6 6 6 6 7 7 7 8 8 8 8 8 8 8 8 9 9 10 10 10 10 10 10 10 10 10
20 24 25 24 21 20 21 23 19 6 -4 -1 16 20 16 8 4 4 8 11 12 11 9 6 4 3 3 4 4 5 5 5 5 5 5 5 5 5 5 6 6 6 6 6 6 6 6 7 7 7 8 8 8 8 8 7 8 8 8 9 9 9 9 9 10 10 10 10 10
24 27 27 24 20 20 22 24 13 6 10 29 32 26 17 13 10 11 12 11 9 7 6 4 4 4 4 5 5 6 6 5 5 5 5 5 5 5 5 6 6 6 5 6 6 6 6 7 7 7 8 8 8 7 7 7 8 8 8 8 9 9 9 9 9 9 10 10 10
28 28 26 21 18 21 24 24 -3 8 33 46 27 20 21 22 15 12 10 7 6 4 4 4 4 5 5 6 6 6 6 6 5 5 5 5 6 6 6 6 6 6 6 6 6 6 7 7 7 8 8 8 7 7 7 7 8 8 8 8 8 8 8 9 9 9 9 9 9
28 26 22 18 19 22 24 18 -23 -6 26 28 20 20 24 24 15 10 6 4 3 3 3 4 4 5 6 6 6 6 6 6 6 6 6 6 6 6 6 6 6 6 6 6 6 6 7 7 7 7 7 7 7 7 7 8 8 8 8 8 8 8 8 8 8 8 8 8 8
25 22 19 17 20 23 20 7 -34 -24 4 18 18 24 28 22 12 7 4 2 2 2 3 3 4 5 6 6 6 6 6 6 6 6 6 6 6 6 6 6 6 6 6 6 6 7 7 7 7 7 7 7 7 7 7 8 8 8 8 8 8 8 8 8 8 8 7 7 7
21 19 17 17 19 20 16 -0 -34 -30 -5 19 18 23 24 12 7 4 2 1 1 1 2 3 4 4 5 6 6 6 6 6 6 7 7 6 6 6 6 6 6 6 6 6 6 7 7 7 7 7 7 7 7 8 8 8 8 8 8 7 7 7 7 7 7 7 7 7 6
19 17 16 17 17 17 13 -1 -28 -26 -6 18 18 20 18 8 5 3 2 0 1 1 2 2 4 5 6 6 6 6 7 7 7 7 6 6 6 6 6 5 5 6 6 6 7 7 7 7 7 7 7 8 8 8 8 8 8 8 7 7 7 7 7 7 7 7 7 6 6
16 15 15 15 14 14 11 1 -21 -20 -6 13 16 16 13 6 4 2 2 1 1 1 2 3 4 5 6 7 7 7 7 7 6 6 6 6 5 5 5 5 5 6 6 6 7 7 7 7 7 7 8 8 8 8 8 8 8 8 7 7 7 7 7 7 7 7 7 7 6
14 13 13 13 12 12 9 0 -15 -14 -3 13 16 15 11 5 4 3 2 2 1 2 2 4 5 6 6 7 7 7 6 6 6 6 5 5 5 5 5 5 6 6 6 7 7 7 7 7 8 8 8 9 9 9 9 9 8 8 7 7 7 7 7 7 8 8 7 7 7
12 12 12 11 10 10 7 -2 -10 -6 3 14 16 14 11 6 5 4 3 1 1 2 4 4 5 6 6 6 6 6 6 6 6 5 5 5 5 5 5 6 6 6 7 7 7 7 7 7 8 8 8 9 9 9 9 9 8 8 7 7 7 7 7 8 8 8 8 7 7
10 10 10 10 10 8 4 -3 -2 4 11 15 16 15 12 7 6 4 2 2 2 3 4 5 5 6 6 6 6 6 6 6 5 5 5 5 5 5 6 6 6 7 7 7 7 7 7 7 8 8 9 9 9 10 9 9 8 8 8 7 7 7 8 8 8 8 7 7 7
8 8 9 8 7 5 2 1 6 12 16 15 17 15 11 7 5 4 2 2 3 3 4 5 5 6 6 6 6 6 5 5 5 5 5 5 5 6 6 6 6 7 7 7 7 7 7 8 8 8 9 9 9 9 9 9 8 8 8 8 8 8 8 7 7 7 7 6 6
8 7 7 7 6 6 7 12 13 15 17 15 17 14 9 7 5 4 3 2 3 3 4 4 5 5 6 6 6 5 5 5 5 5 5 5 6 6 6 6 6 7 7 7 7 7 7 8 8 9 9 9 9 9 8 8 8 8 8 8 8 7 7 7 7 6 6 5 5
6 4 5 11 14 18 20 22 17 15 15 16 16 12 8 7 5 4 3 3 3 4 4 5 5 6 6 6 6 5 5 5 5 5 6 6 6 6 6 6 6 6 6 6 7 7 7 8 8 9 9 9 8 8 8 8 8 8 8 8 7 7 7 6 6 6 5 5 5
2 -3 2 27 30 29 27 23 15 12 12 14 13 10 7 6 5 4 3 3 4 4 4 5 5 6 6 6 6 6 6 6 6 6 6 6 6 6 6 6 6 6 6 6 7 7 8 8 9 9 9 8 8 8 8 8 8 8 8 8 7 7 7 6 6 5 5 5 5
-6 -13 -3 34 30 26 21 19 9 9 13 13 10 7 6 5 4 4 3 4 4 5 5 5 6 6 6 6 6 6 6 6 6 6 6 6 6 6 6 6 6 6 7 7 7 8 8 9 10 9 9 9 9 8 8 8 8 8 8 8 7 7 6 6 6 5 5 5 6
-15 -15 -0 24 18 15 13 13 9 11 13 12 7 5 4 4 4 4 4 4 5 5 5 5 6 6 6 6 6 6 6 7 6 6 6 6 6 6 6 6 7 7 7 8 8 9 10 11 11 11 11 11 10 10 10 9 9 9 8 8 7 7 6 6 5 5 5 5 6
-21 -8 11 15 11 9 9 11 12 12 11 8 5 4 4 4 4 4 5 5 5 6 6 6 6 6 6 6 6 7 7 7 7 7 7 7 7 7 7 7 7 8 8 9 10 11 12 13 13 13 13 13 12 11 10 9 9 8 7 7 6 6 6 5 5 4 5 5 5
-21 -3 15 13 9 9 10 11 12 10 8 5 4 4 4 4 4 4 5 5 5 6 6 6 6 6 6 6 6 7 7 7 7 7 7 7 7 7 8 8 9 10 11 12 13 13 14 14 14 14 13 12 11 10 9 8 7 7 6 6 6 6 5 5 4 4 4 5 5
-14 -3 10 11 9 9 10 9 9 9 7 4 4 4 5 5 4 4 5 5 6 6 6 7 6 6 6 5 5 6 6 6 7 7 7 8 8 8 9 9 11 12 13 14 14 14 14 14 13 12 11 10 8 7 6 6 6 6 6 6 6 6 5 5 5 5 5 5 5
-4 -1 5 8 8 8 8 8 9 8 6 4 5 5 6 6 5 6 6 6 7 7 6 6 5 4 4 4 4 4 4 6 7 8 9 9 10 10 10 11 12 12 13 13 13 13 12 11 10 9 8 6 6 5 5 5 5 5 5 6 6 6 6 5 5 5 5 5 5
4 3 4 5 6 6 7 8 8 8 6 6 6 6 6 7 7 6 6 6 6 5 4 3 3 3 3 4 4 5 6 7 10 11 12 12 12 11 11 10 10 10 10 10 10 10 10 9 8 6 6 5 5 5 5 5 5 4 4 4 4 5 5 5 5 5 5 5 5
7 5 4 4 4 4 5 7 8 9 8 8 7 6 6 6 6 5 4 4 4 4 3 4 5 6 7 8 8 9 10 11 13 13 13 13 11 10 8 7 7 7 7 8 7 7 6 6 5 5 5 5 5 5 6 6 6 5 4 3 3 4 5 5 5 5 5 6 6
8 6 5 4 4 3 4 7 10 10 10 8 6 5 5 4 4 4 5 5 5 6 7 8 10 11 11 12 12 13 13 13 12 11 9 8 7 6 4 4 4 4 5 6 5 5 4 3 4 4 4 4 5 6 6 6 5 4 4 2 2 4 5 6 6 6 6 6 7
9 8 7 6 5 6 7 10 12 12 10 8 6 5 5 5 5 6 8 8 8 9 11 12 12 12 12 13 14 14 13 11 8 6 4 4 4 4 3 3 4 4 4 5 5 5 4 4 3 3 3 4 4 4 4 4 3 4 5 4 5 6 6 6 6 6 6 6 6
9 8 7 6 6 7 10 12 12 11 9 9 8 8 8 8 8 9 10 10 10 11 11 11 10 10 10 12 13 12 10 8 6 4 4 4 4 4 4 5 5 5 5 5 6 6 5 4 4 3 3 2 2 2 3 4 4 5 5 5 7 7 7 6 6 6 7 6 6
11 9 7 5 6 8 10 10 9 8 7 7 8 8 8 8 8 8 8 9 9 9 9 8 7 7 8 9 10 10 10 9 8 7 6 5 5 5 6 7 7 7 7 5 5 5 4 3 2 2 2 3 4 4 5 6 6 6 6 6 6 7 7 7 7 8 8 8 8
8 6 7 9 9 9 8 6 4 4 4 4 5 6 6 5 4 4 4 6 6 6 6 6 6 6 7 8 9 10 10 9 8 6 6 5 5 6 7 8 8 8 8 6 5 5 4 4 4 4 5 6 6 7 7 8 8 8 8 7 7 6 6 7 8 8 8 8 8
8 8 9 10 9 8 6 4 1 1 2 4 4 3 3 4 4 4 4 4 4 5 6 6 7 8 8 9 9 8 7 7 6 6 5 5 6 7 8 9 9 9 8 8 7 7 7 7 7 7 8 8 8 8 8 9 8 8 8 8 7 7 7 7 8 8 8 8 9
7 8 9 8 7 4 1 -1 0 3 4 4 3 3 3 3 4 4 4 4 5 7 8 9 9 9 9 8 7 7 6 6 6 6 6 7 8 9 10 10 10 10 10 10 9 9 9 9 9 9 9 9 9 9 9 8 8 8 8 7 7 7 8 8 8 8 8 8 8
5 7 8 8 5 3 2 4 6 6 5 3 3 4 4 4 4 5 5 6 8 9 10 9 8 7 7 6 7 7 7 7 8 8 8 9 10 10 11 11 11 11 11 10 10 10 10 10 10 10 10 9 9 8 8 8 7 7 7 7 8 8 8 9 8 8 8 8 8
8 9 9 8 6 7 8 8 6 5 4 4 4 5 5 6 6 7 7 8 8 8 7 6 6 6 6 7 8 8 9 10 10 10 11 11 11 11 11 11 11 11 11 11 11 11 10 10 10 9 9 9 8 8 8 7 7 7 8 8 8 8 9 9 8 8 8 8 8
8 8 8 7 7 8 8 7 6 6 5 5 6 6 7 7 7 6 6 6 5 5 4 4 5 6 7 8 9 10 11 11 11 12 12 12 11 11 11 10 10 10 10 10 10 10 10 10 9 9 8 8 8 8 7 7 7 8 8 8 8 8 8 8 8 8 8 8 8
7 5 4 5 6 6 5 6 6 6 6 6 6 6 7 7 6 5 4 4 4 4 4 5 6 7 9 10 10 11 11 12 12 12 12 11 11 11 10 10 10 10 10 10 10 10 9 9 9 8 8 8 8 8 8 8 8 8 8 8 8 8 8 8 9 9 9 9 9
13 10 7 5 6 6 6 6 6 6 6 6 5 5 5 4 4 4 4 4 5 6 7 8 9 10 10 11 11 11 11 12 12 11 11 11 10 10 10 10 10 10 10 9 9 9 9 8 8 8 8 7 7 7 8 8 8 8 8 8 8 8 8 9 9 9 10 10 10
14 11 8 6 6 5 5 5 5 5 5 4 4 4 4 4 4 5 5 6 7 8 9 10 10 10 11 11 11 11 11 11 11 11 11 10 10 10 10 10 9 9 9 8 8 8 8 8 8 7 7 7 7 7 7 7 7 7 8 8 8 8 9 9 9 9 10 10 10
7 7 6 6 6 5 5 4 4 4 4 4 4 4 5 5 6 7 7 8 8 9 10 10 10 10 10 11 11 11 11 10 10 10 10 10 10 10 10 9 9 8 8 8 8 8 8 7 7 7 7 8 8 8 8 8 7 8 8 8 8 9 9 9 9 9 10 10 11
5 5 5 5 5 5 5 4 4 4 5 5 6 6 7 7 8 8 8 9 9 9 9 10 10 10 10 10 10 10 10 10 10 10 10 10 10 9 9 9 9 8 8 8 8 8 8 7 7 8 8 8 8 8 8 8 8 8 8 9 9 9 10 10 10 10 10 11 12
4 4 4 5 5 5 6 6 6 6 6 7 7 8 8 9 9 9 9 9 9 9 9 9 9 10 10 10 10 10 10 10 9 9 10 10 9 9 9 9 8 8 8 8 8 8 8 8 8 8 8 8 8 8 8 8 8 9 9 10 10 10 10 11 11 11 11 11 12
Height
5560 5565 5569 5574 5579 5584 5587 5590 5593 5598 5604 5610 5619 5628 5629 5620 5620 5623 5627 5632 5636 5640 5645 5648 5652 5655 5659 5661 5664 5666 5669 5671 5674 5676 5678 5681 5683 5686 5688 5691 5693 5695 5697 5699 5701 5702 5704 5705 5706 5708 5709 5710 5711 5712 5713 5714 5715 5715 5716 5717 5717 5718 5719 5720 5720 5721 5722 5723 5724
5561 5565 5570 5575 5580 5583 5587 5590 5594 5599 5604 5608 5615 5617 5616 5618 5620 5623 5628 5632 5636 5641 5645 5648 5651 5655 5657 5660 5663 5665 5668 5670 5673 5675 5678 5680 5683 5685 5688 5690 5692 5694 5696 5698 5700 5701 5702 5704 5705 5706 5707 5708 5710 5710 5711 5712 5713 5714 5714 5715 5715 5716 5717 5718 5719 5719 5720 5721 5722
5562 5566 5570 5575 5580 5584 5587 5591 5596 5600 5605 5608 5614 5615 5615 5615 5619 5624 5628 5633 5637 5640 5644 5648 5651 5654 5656 5659 5662 5665 5667 5670 5672 5675 5677 5680 5682 5685 5687 5689 5691 5693 5695 5696 5698 5699 5700 5702 5703 5704 5705 5706 5707 5708 5709 5710 5711 5711 5712 5713 5714 5715 5716 5716 5717 5718 5719 5720 5721
5562 5566 5571 5576 5580 5585 5589 5593 5599 5603 5607 5609 5610 5612 5615 5616 5620 5624 5628 5633 5636 5640 5644 5647 5650 5653 5656 5659 5661 5664 5667 5669 5672 5674 5677 5679 5681 5684 5686 5688 5690 5692 5693 5695 5696 5697 5699 5700 5701 5702 5703 5704 5705 5706 5707 5708 5709 5710 5711 5711 5712 5713 5714 5715 5716 5716 5717 5718 5719
5562 5567 5572 5577 5581 5586 5591 5596 5601 5605 5607 5609 5609 5614 5618 5619 5620 5624 5629 5632 5636 5640 5643 5646 5650 5653 5655 5658 5661 5664 5666 5669 5671 5674 5676 5679 5681 5683 5685 5687 5689 5690 5692 5693 5694 5695 5696 5698 5699 5700 5701 5702 5703 5705 5705 5706 5707 5708 5709 5710 5710 5711 5713 5714 5714 5715 5715 5716 5717
5563 5568 5573 5578 5583 5587 5592 5597 5602 5605 5607 5608 5610 5615 5619 5619 5621 5625 5629 5632 5636 5640 5643 5646 5650 5653 5655 5658 5661 5664 5666 5669 5671 5673 5676 5678 5680 5682 5684 5685 5687 5689 5690 5691 5692 5694 5695 5696 5697 5698 5699 5700 5701 5702 5703 5704 5705 5706 5708 5709 5709 5710 5711 5711 5712 5713 5714 5715 5715
5564 5569 5575 5580 5584 5589 5594 5598 5602 5605 5607 5608 5610 5614 5618 5619 5622 5625 5629 5633 5636 5640 5643 5646 5650 5653 5655 5658 5661 5663 5666 5668 5671 5673 5675 5677 5679 5680 5682 5684 5685 5687 5688 5689 5690 5692 5693 5694 5695 5696 5698 5699 5700 5701 5701 5703 5704 5705 5706 5707 5708 5708 5709 5710 5710 5711 5712 5713 5714
5565 5570 5576 5580 5585 5590 5595 5599 5603 5606 5609 5610 5610 5614 5617 5618 5622 5626 5629 5633 5637 5640 5644 5647 5650 5653 5656 5658 5661 5663 5665 5668 5670 5672 5674 5676 5677 5679 5680 5682 5684 5685 5686 5688 5689 5690 5691 5692 5694 5695 5696 5697 5698 5699 5700 5701 5702 5703 5704 5705 5706 5707 5707 5708 5709 5710 5710 5711 5712
5567 5572 5577 5582 5586 5591 5595 5600 5605 5608 5610 5612 5612 5615 5618 5619 5623 5626 5630 5634 5637 5641 5644 5647 5650 5653 5655 5658 5660 5663 5665 5667 5669 5671 5673 5674 5676 5677 5679 5680 5682 5683 5685 5686 5687 5688 5690 5691 5692 5693 5694 5695 5696 5697 5698 5699 5700 5702 5703 5704 5705 5705 5706 5707 5707 5708 5709 5710 5710
5569 5574 5579 5583 5588 5592 5597 5602 5606 5609 5611 5613 5613 5615 5618 5620 5624 5627 5631 5635 5638 5641 5645 5647 5650 5653 5655 5658 5660 5662 5664 5666 5668 5670 5671 5673 5674 5676 5677 5679 5680 5681 5683 5684 5685 5687 5688 5689 5690 5691 5692 5693 5694 5695 5696 5697 5699 5700 5701 5702 5704 5705 5705 5705 5706 5707 5707 5708 5708
5571 5575 5580 5585 5589 5594 5598 5603 5606 5610 5612 5613 5614 5616 5619 5622 5625 5628 5632 5635 5639 5642 5645 5647 5650 5652 5655 5657 5659 5661 5663 5665 5666 5668 5670 5671 5673 5674 5675 5677 5678 5680 5681 5682 5684 5685 5686 5687 5688 5689 5690 5691 5692 5694 5695 5696 5697 5699 5700 5701 5702 5703 5704 5704 5705 5705 5706 5706 5707
5573 5577 5582 5586 5591 5595 5599 5603 5607 5610 5612 5613 5615 5618 5621 5623 5626 5629 5632 5635 5639 5641 5644 5647 5649 5651 5654 5656 5658 5660 5662 5664 5665 5667 5668 5670 5671 5673 5674 5675 5677 5678 5680 5681 5682 5683 5685 5685 5686 5687 5689 5690 5691 5692 5693 5695 5696 5697 5698 5699 5700 5701 5702 5702 5703 5704 5704 5705 5705
5575 5579 5584 5588 5592 5596 5600 5604 5608 5610 5612 5614 5617 5620 5621 5624 5626 5630 5633 5635 5638 5641 5644 5646 5648 5650 5653 5655 5657 5659 5661 5662 5664 5665 5667 5669 5670 5672 5673 5675 5676 5677 5678 5679 5680 5681 5683 5684 5685 5686 5687 5688 5689 5690 5691 5693 5694 5695 5697 5698 5699 5699 5700 5701 5701 5702 5702 5703 5704
5577 5582 5586 5590 5595 5599 5602 5606 5609 5611 5613 5615 5619 5620 5621 5624 5627 5630 5632 5635 5638 5640 5643 5645 5647 5650 5652 5654 5655 5657 5659 5661 5663 5664 5666 5667 5669 5670 5672 5673 5674 5675 5677 5678 5679 5680 5681 5682 5683 5684 5685 5686 5687 5688 5690 5691 5692 5694 5695 5696 5696 5697 5698 5699 5699 5700 5701 5701 5702
5580 5585 5589 5594 5597 5601 5604 5607 5610 5612 5615 5618 5619 5620 5622 5625 5627 5630 5632 5635 5637 5640 5642 5645 5647 5649 5651 5653 5655 5656 5658 5660 5661 5663 5665 5666 5668 5669 5670 5672 5673 5674 5675 5676 5677 5678 5679 5680 5681 5682 5683 5685 5685 5687 5688 5689 5690 5692 5693 5694 5695 5695 5696 5697 5697 5698 5699 5699 5700
5584 5589 5593 5597 5600 5603 5605 5608 5610 5613 5616 5619 5619 5620 5622 5625 5627 5630 5632 5635 5637 5640 5642 5644 5646 5648 5650 5652 5654 5655 5657 5659 5660 5662 5664 5665 5667 5668 5669 5670 5671 5672 5674 5675 5675 5676 5678 5679 5680 5681 5682 5683 5684 5685 5686 5687 5689 5690 5691 5692 5693 5693 5694 5695 5695 5696 5696 5697 5697
5587 5592 5595 5598 5600 5603 5606 5609 5611 5614 5616 5618 5619 5620 5623 5625 5627 5630 5632 5635 5637 5639 5641 5643 5645 5647 5649 5651 5653 5655 5656 5658 5660 5661 5663 5664 5666 5667 5668 5669 5670 5671 5672 5673 5675 5675 5677 5678 5679 5680 5681 5682 5682 5683 5684 5685 5687 5688 5689 5690 5690 5691 5692 5692 5693 5693 5694 5694 5695
5590 5593 5596 5598 5601 5603 5606 5609 5612 5615 5617 5618 5619 5621 5623 5625 5627 5630 5632 5634 5636 5639 5641 5643 5645 5646 5648 5650 5652 5654 5655 5657 5659 5660 5662 5663 5665 5666 5667 5668 5669 5670 5671 5672 5673 5675 5675 5676 5678 5679 5680 5680 5681 5682 5683 5684 5685 5685 5686 5687 5688 5689 5689 5690 5690 5691 5692 5692 5693
5591 5595 5597 5599 5602 5605 5607 5610 5613 5615 5617 5617 5619 5621 5623 5625 5628 5630 5632 5634 5636 5638 5640 5642 5644 5646 5648 5650 5651 5653 5655 5656 5658 5660 5661 5663 5664 5665 5666 5667 5668 5669 5670 5671 5672 5673 5674 5675 5676 5677 5678 5678 5680 5680 5681 5682 5683 5684 5684 5685 5686 5686 5687 5688 5688 5689 5690 5690 5690
5594 5596 5598 5600 5603 5605 5608 5610 5612 5614 5616 5617 5619 5621 5624 5625 5627 5630 5632 5634 5635 5637 5639 5641 5643 5645 5647 5649 5651 5653 5654 5656 5657 5659 5660 5662 5663 5664 5665 5666 5667 5668 5669 5670 5671 5672 5673 5674 5675 5675 5676 5677 5678 5679 5680 5680 5681 5682 5682 5683 5684 5685 5685 5686 5686 5687 5687 5688 5688
5596 5598 5600 5602 5604 5606 5608 5610 5612 5614 5615 5617 5619 5622 5624 5625 5627 5629 5631 5633 5635 5637 5639 5641 5643 5645 5647 5649 5650 5652 5654 5655 5657 5658 5660 5661 5662 5663 5664 5665 5666 5667 5668 5669 5670 5670 5671 5672 5673 5674 5675 5676 5676 5677 5678 5679 5679 5680 5680 5681 5682 5683 5683 5684 5684 5685 5685 5686 5686
5598 5600 5601 5603 5605 5607 5609 5610 5612 5613 5615 5617 5619 5621 5623 5625 5627 5629 5630 5632 5634 5636 5638 5640 5642 5644 5646 5648 5650 5651 5653 5655 5656 5657 5659 5660 5661 5662 5663 5665 5665 5666 5667 5668 5669 5670 5670 5671 5672 5672 5673 5674 5675 5675 5676 5677 5677 5678 5678 5679 5680 5680 5681 5681 5682 5682 5683 5684 5684
5600 5601 5603 5605 5607 5608 5609 5610 5611 5613 5614 5616 5618 5620 5622 5624 5626 5628 5630 5632 5634 5636 5638 5640 5642 5644 5646 5648 5650 5651 5653 5654 5655 5657 5658 5659 5660 5662 5663 5664 5665 5666 5666 5667 5667 5668 5669 5669 5670 5671 5672 5673 5673 5674 5674 5675 5675 5676 5677 5677 5677 5678 5678 5679 5680 5680 5681 5681 5682
5600 5602 5604 5605 5607 5608 5609 5610 5610 5612 5614 5616 5618 5620 5622 5624 5626 5628 5630 5632 5634 5636 5639 5640 5643 5644 5646 5648 5649 5650 5652 5654 5655 5656 5657 5658 5660 5661 5662 5663 5664 5664 5665 5665 5666 5666 5667 5668 5669 5669 5670 5671 5671 5672 5672 5673 5673 5674 5675 5675 5675 5675 5676 5677 5677 5678 5679 5679 5680
5600 5602 5603 5605 5606 5607 5608 5609 5610 5612 5614 5616 5618 5620 5622 5625 5627 5629 5631 5633 5635 5638 5640 5641 5643 5644 5646 5647 5648 5650 5651 5653 5654 5655 5656 5657 5658 5659 5660 5661 5662 5662 5663 5664 5664 5665 5666 5666 5667 5667 5669 5670 5670 5670 5671 5672 5672 5672 5672 5673 5673 5674 5675 5675 5675 5676 5676 5677 5677
5599 5601 5603 5605 5607 5608 5608 5609 5610 5612 5615 5617 5619 5621 5623 5626 5628 5630 5632 5634 5636 5638 5639 5641 5642 5644 5645 5646 5647 5649 5650 5651 5653 5654 5655 5656 5656 5657 5658 5659 5660 5660 5661 5662 5662 5663 5664 5664 5665 5666 5667 5668 5669 5669 5670 5670 5670 5671 5671 5672 5672 5672 5673 5673 5674 5674 5674 5675 5675
5600 5602 5605 5606 5607 5607 5607 5609 5611 5613 5615 5618 5620 5623 5625 5626 5628 5630 5632 5634 5635 5637 5639 5640 5641 5643 5644 5645 5647 5648 5649 5650 5651 5652 5653 5654 5655 5656 5656 5657 5657 5658 5659 5660 5660 5660 5661 5661 5662 5664 5665 5666 5667 5668 5668 5669 5669 5670 5670 5671 5672 5672 5671 5671 5672 5672 5672 5673 5673
5601 5603 5604 5604 5605 5605 5607 5610 5611 5614 5616 5619 5621 5623 5625 5626 5628 5630 5631 5633 5635 5636 5638 5639 5640 5642 5643 5645 5646 5647 5648 5649 5650 5650 5651 5652 5653 5654 5654 5655 5656 5656 5657 5658 5659 5659 5659 5660 5661 5662 5663 5663 5664 5665 5665 5667 5667 5668 5669 5670 5670 5671 5670 5670 5670 5670 5670 5671 5672
5599 5600 5601 5602 5604 5606 5608 5610 5612 5615 5617 5620 5621 5623 5624 5626 5627 5629 5630 5632 5634 5635 5637 5638 5640 5641 5642 5644 5645 5646 5647 5648 5649 5649 5650 5650 5651 5652 5652 5653 5654 5655 5655 5656 5656 5657 5657 5658 5659 5660 5660 5661 5662 5662 5663 5664 5665 5665 5666 5667 5668 5669 5669 5668 5668 5668 5669 5669 5669
5597 5599 5601 5603 5605 5607 5609 5611 5614 5615 5617 5619 5620 5622 5624 5625 5626 5628 5629 5631 5633 5635 5636 5637 5639 5640 5641 5643 5644 5645 5646 5646 5647 5647 5648 5649 5649 5650 5650 5651 5652 5653 5653 5654 5655 5655 5655 5656 5657 5657 5658 5659 5660 5660 5661 5661 5662 5663 5663 5664 5665 5666 5666 5666 5666 5666 5666 5666 5666
5598 5600 5602 5604 5605 5608 5610 5612 5614 5615 5617 5618 5620 5621 5623 5624 5626 5628 5629 5631 5632 5634 5635 5636 5638 5639 5640 5641 5642 5643 5644 5645 5645 5646 5646 5647 5648 5648 5649 5650 5650 5651 5651 5652 5652 5653 5654 5654 5655 5655 5656 5656 5657 5658 5658 5659 5660 5660 5660 5661 5662 5662 5662 5663 5663 5663 5663 5663 5663
5599 5601 5603 5604 5606 5608 5610 5611 5613 5614 5616 5617 5619 5620 5622 5623 5625 5627 5629 5630 5631 5633 5635 5635 5637 5638 5639 5640 5640 5641 5642 5643 5643 5644 5645 5645 5646 5646 5647 5648 5648 5649 5650 5650 5650 5651 5651 5652 5653 5653 5654 5655 5655 5656 5656 5657 5657 5658 5658 5659 5659 5659 5660 5660 5660 5660 5660 5661 5661
5600 5601 5602 5604 5605 5607 5609 5610 5612 5613 5615 5616 5618 5620 5621 5623 5625 5626 5628 5630 5631 5632 5634 5635 5635 5636 5637 5638 5639 5640 5640 5641 5641 5642 5642 5643 5644 5644 5645 5645 5646 5647 5647 5648 5648 5649 5650 5650 5650 5651 5652 5652 5653 5654 5654 5655 5655 5655 5656 5656 5657 5657 5657 5658 5658 5658 5658 5658 5658
5599 5600 5602 5603 5605 5606 5608 5609 5610 5612 5614 5616 5618 5620 5621 5623 5624 5626 5627 5629 5630 5631 5632 5633 5634 5635 5635 5636 5637 5638 5638 5639 5639 5640 5640 5641 5641 5642 5643 5643 5644 5645 5645 5645 5646 5647 5647 5648 5648 5649 5650 5650 5651 5651 5652 5652 5653 5653 5654 5654 5655 5655 5655 5655 5655 5655 5655 5655 5656
5598 5600 5601 5602 5604 5605 5607 5608 5610 5612 5614 5616 5618 5620 5621 5623 5624 5625 5626 5628 5629 5630 5630 5631 5632 5633 5634 5634 5635 5635 5636 5636 5637 5637 5638 5639 5639 5640 5640 5641 5642 5642 5643 5643 5644 5645 5645 5646 5646 5647 5647 5648 5649 5649 5650 5650 5650 5651 5651 5652 5652 5652 5653 5653 5653 5653 5653 5653 5653
5598 5599 5600 5602 5603 5605 5607 5609 5611 5613 5615 5616 5618 5619 5620 5622 5623 5624 5625 5626 5627 5628 5629 5630 5630 5631 5632 5632 5633 5633 5634 5634 5635 5635 5636 5636 5637 5638 5638 5639 5640 5640 5640 5641 5642 5642 5643 5644 5644 5645 5645 5646 5646 5647 5647 5648 5648 5649 5649 5649 5650 5650 5650 5650 5650 5650 5650 5650 5650
5598 5599 5600 5602 5604 5605 5607 5609 5611 5613 5614 5615 5617 5618 5619 5620 5621 5623 5624 5625 5625 5626 5627 5628 5629 5629 5630 5630 5631 5631 5632 5632 5633 5633 5634 5634 5635 5636 5636 5637 5637 5638 5638 5639 5640 5640 5641 5641 5642 5643 5643 5644 5644 5645 5645 5645 5646 5646 5647 5647 5647 5647 5647 5647 5647 5648 5648 5648 5648
5597 5599 5600 5602 5604 5606 5607 5609 5610 5612 5613 5615 5616 5617 5618 5619 5620 5621 5622 5623 5624 5624 5625 5626 5626 5627 5628 5628 5629 5629 5630 5630 5630 5631 5632 5632 5633 5634 5634 5635 5635 5636 5636 5637 5637 5638 5639 5639 5640 5640 5641 5641 5642 5642 5643 5643 5644 5644 5644 5645 5645 5645 5645 5645 5645 5645 5645 5645 5645
5598 5599 5601 5602 5604 5605 5607 5608 5610 5611 5612 5613 5615 5616 5617 5618 5619 5619 5620 5621 5621 5622 5623 5624 5625 5625 5625 5626 5626 5627 5627 5628 5629 5629 5630 5631 5631 5632 5632 5633 5634 5634 5634 5635 5635 5636 5636 5637 5638 5638 5639 5639 5640 5640 5640 5641 5641 5641 5642 5642 5642 5642 5642 5642 5642 5642 5642 5642 5642
5598 5600 5601 5602 5604 5605 5606 5608 5609 5610 5611 5612 5613 5614 5615 5616 5617 5617 5618 5619 5620 5620 5621 5622 5622 5623 5623 5624 5625 5625 5626 5626 5627 5628 5628 5629 5630 5630 5631 5631 5632 5632 5633 5633 5633 5634 5635 5635 5635 5636 5636 5637 5637 5637 5638 5638 5639 5639 5639 5639 5639 5639 5639 5639 5639 5639 5639 5639 5639
5598 5600 5601 5602 5604 5605 5606 5607 5608 5609 5610 5611 5612 5613 5614 5614 5615 5616 5616 5617 5618 5619 5619 5620 5620 5621 5621 5622 5623 5623 5624 5625 5625 5626 5627 5627 5628 5629 5629 5630 5630 5630 5631 5631 5632 5632 5633 5633 5633 5634 5634 5635 5635 5635 5635 5636 5636 5636 5637 5637 5637 5637 5637 5637 5636 5636 5636 5636 5636